This is the latest recevied weather packets stored in our database for station/object KC4GS-13. If no packets are shown the sender has not sent any weather packets the latest 10 day(s).
| Time | Temp. | Humidity | Pressure | Rain* | Wind** | Luminosity | Snow |
|---|---|---|---|---|---|---|---|
| 1778020636 | 27.78° C | 43% | 1014.8 hPa | 0 mm | - | 63 W/m² | - |
| 1778020332 | 28.33° C | 43% | 1014.8 hPa | 0 mm | - | 78 W/m² | - |
| 1778020028 | 28.33° C | 41% | 1015 hPa | 0 mm | - | 268 W/m² | - |
| 1778019724 | 28.33° C | 42% | 1014.7 hPa | 0 mm | - | 257 W/m² | - |
| 1778019422 | 28.89° C | 41% | 1014.8 hPa | 0 mm | - | 276 W/m² | - |
| 1778019118 | 28.89° C | 41% | 1014.6 hPa | 0 mm | - | 272 W/m² | - |
| 1778018815 | 29.44° C | 41% | 1014.7 hPa | 0 mm | - | 284 W/m² | - |
| 1778018513 | 28.89° C | 41% | 1014.8 hPa | 0 mm | - | 313 W/m² | - |
| 1778018210 | 28.89° C | 40% | 1014.6 hPa | 0 mm | - | 313 W/m² | - |
| 1778017908 | 28.89° C | 39% | 1015 hPa | 0 mm | - | 386 W/m² | - |
| 1778017606 | 29.44° C | 39% | 1015 hPa | 0 mm | - | 351 W/m² | - |
| 1778017303 | 28.89° C | 41% | 1015 hPa | 0 mm | - | 367 W/m² | - |
| 1778017001 | 28.89° C | 40% | 1014.9 hPa | 0 mm | - | 112 W/m² | - |
| 1778016697 | 29.44° C | 38% | 1015 hPa | 0 mm | - | 160 W/m² | - |
| 1778016393 | 30° C | 38% | 1014.9 hPa | 0 mm | - | 278 W/m² | - |
| 1778016091 | 29.44° C | 39% | 1014.9 hPa | 0 mm | - | 513 W/m² | - |
| 1778015788 | 28.89° C | 39% | 1014.7 hPa | 0 mm | - | 495 W/m² | - |
| 1778015485 | 28.89° C | 40% | 1014.7 hPa | 0 mm | - | 403 W/m² | - |
| 1778015181 | 29.44° C | 39% | 1014.9 hPa | 0 mm | - | 294 W/m² | - |
| 1778014878 | 29.44° C | 40% | 1015 hPa | 0 mm | - | 410 W/m² | - |
| 1778014576 | 29.44° C | 39% | 1014.7 hPa | 0 mm | - | 373 W/m² | - |
| 1778014274 | 28.89° C | 40% | 1014.7 hPa | 0 mm | - | 262 W/m² | - |
| 1778013970 | 29.44° C | 38% | 1014.9 hPa | 0 mm | - | 425 W/m² | - |
| 1778013668 | 30° C | 38% | 1015.1 hPa | 0 mm | - | 585 W/m² | - |
| 1778013364 | 28.89° C | 39% | 1015.4 hPa | 0 mm | - | 615 W/m² | - |
* Rain latest hour (hover to see other rain measurements)
** Current wind speed in m/s (hover to see current wind gust speed)